Temp
-4 -4 -5 -5 -5 -6 -6 -7 -7 -7 -7 -7 -7 -7 -7 -6 -6 -5 -5 -5 -4 -4
-4 -5 -5 -5 -5 -6 -7 -7 -7 -7 -7 -8 -7 -7 -7 -6 -6 -5 -5 -5 -5 -4
-4 -5 -5 -5 -6 -6 -7 -7 -8 -7 -8 -8 -7 -7 -7 -6 -6 -6 -6 -5 -5 -5
-5 -5 -5 -6 -6 -7 -7 -7 -8 -7 -8 -8 -7 -7 -7 -7 -6 -6 -6 -6 -6 -5
-5 -5 -5 -6 -6 -7 -7 -8 -8 -7 -8 -8 -8 -7 -7 -7 -7 -7 -6 -6 -6 -6
-5 -6 -6 -6 -6 -7 -7 -8 -8 -6 -8 -8 -8 -8 -8 -7 -7 -7 -7 -7 -7 -6
-6 -6 -6 -6 -7 -7 -8 -8 -7 -7 -9 -8 -8 -8 -8 -8 -8 -7 -7 -7 -7 -7
-6 -6 -7 -7 -7 -7 -7 -8 -8 -7 -8 -9 -9 -9 -8 -8 -8 -8 -8 -8 -8 -7
-6 -6 -7 -7 -7 -7 -7 -7 -9 -7 -8 -9 -9 -9 -7 -7 -8 -8 -8 -8 -8 -7
-6 -6 -7 -7 -7 -7 -7 -7 -8 -9 -8 -8 -8 -7 -6 -7 -7 -8 -7 -8 -8 -7
-5 -6 -6 -7 -7 -7 -7 -7 -8 -8 -9 -8 -7 -5 -6 -8 -8 -8 -7 -8 -8 -6
-4 -5 -6 -7 -7 -7 -7 -7 -8 -8 -8 -9 -8 -5 -5 -8 -9 -8 -8 -8 -7 -6
-4 -5 -6 -7 -7 -7 -8 -8 -8 -8 -9 -8 -8 -6 -5 -5 -8 -9 -8 -8 -7 -6
-4 -5 -6 -7 -7 -8 -8 -8 -8 -8 -8 -9 -7 -7 -6 -6 -6 -8 -9 -9 -7 -7
Height
1552 1546 1541 1536 1530 1523 1517 1511 1504 1497 1492 1487 1481 1476 1471 1467 1463 1460 1456 1451 1446 1443
1552 1546 1541 1537 1531 1525 1518 1512 1505 1499 1494 1488 1483 1478 1473 1469 1465 1462 1458 1453 1449 1445
1552 1547 1542 1538 1532 1526 1520 1513 1507 1500 1495 1490 1485 1480 1476 1473 1468 1464 1460 1456 1452 1448
1552 1547 1543 1539 1533 1528 1522 1515 1508 1502 1498 1493 1488 1482 1478 1475 1471 1467 1464 1459 1455 1450
1552 1548 1544 1539 1535 1529 1524 1518 1510 1504 1500 1496 1491 1485 1480 1476 1474 1470 1465 1462 1456 1453
1552 1548 1544 1540 1536 1531 1526 1520 1513 1507 1502 1499 1494 1488 1483 1479 1475 1473 1469 1463 1460 1455
1552 1549 1545 1541 1537 1533 1528 1522 1515 1510 1506 1502 1498 1492 1486 1481 1477 1474 1470 1466 1461 1457
1553 1550 1546 1543 1539 1535 1531 1525 1519 1513 1509 1505 1500 1494 1489 1484 1480 1476 1472 1469 1463 1459
1554 1551 1547 1544 1541 1537 1533 1529 1523 1516 1512 1508 1504 1498 1493 1487 1483 1480 1475 1471 1468 1462
1555 1552 1549 1546 1543 1539 1535 1531 1527 1521 1515 1511 1507 1502 1496 1491 1487 1483 1478 1474 1469 1465
1557 1554 1551 1548 1545 1542 1538 1534 1530 1526 1520 1515 1510 1505 1500 1495 1493 1487 1482 1479 1475 1469
1558 1555 1552 1550 1547 1544 1541 1536 1532 1528 1524 1519 1514 1509 1503 1498 1495 1491 1487 1482 1478 1474
1559 1557 1554 1551 1548 1546 1543 1540 1536 1532 1527 1522 1518 1514 1508 1502 1499 1494 1490 1487 1482 1477
1561 1558 1556 1553 1550 1548 1545 1542 1539 1536 1531 1526 1521 1517 1513 1507 1502 1498 1495 1491 1487 1484
Wind_Speed
21 22 20 21 22 22 22 23 25 26 25 23 26 25 22 19 18 20 19 19 18 16
20 21 20 20 21 21 22 22 23 24 24 24 26 25 22 20 19 20 19 19 19 18
19 20 19 19 21 21 21 22 23 24 23 25 26 26 21 19 19 20 21 20 20 20
19 19 18 19 20 21 21 22 24 25 24 25 27 26 22 20 20 20 20 21 21 21
18 18 18 19 20 21 20 21 23 24 23 25 28 27 23 22 20 20 22 22 21 22
17 17 17 18 19 20 20 21 23 25 25 26 27 27 23 21 21 21 20 22 21 23
16 16 16 17 17 19 19 21 23 25 24 25 27 27 23 21 20 20 21 22 22 23
15 15 15 16 17 18 19 20 22 24 24 24 27 28 24 21 21 21 21 21 23 22
14 14 16 16 16 16 17 19 21 24 24 25 27 27 25 22 21 22 23 25 25 24
15 15 15 15 15 16 17 17 19 22 23 24 27 28 24 25 22 23 25 26 28 28
15 15 15 15 15 16 16 16 16 19 21 23 26 27 26 25 22 23 25 26 28 29
15 15 16 16 15 15 15 16 15 17 19 22 24 27 28 25 22 24 24 25 26 30
14 15 15 16 14 14 14 14 15 16 18 22 23 26 28 28 25 24 24 25 27 29
13 14 14 15 14 14 14 14 15 15 16 20 24 25 26 28 28 25 24 25 27 28
Wind_Direction
356 356 355 354 352 347 348 352 347 359 360 359 4 5 8 9 11 14 11 8 9 6
355 357 357 357 355 353 351 355 353 3 356 5 8 9 10 11 16 16 14 10 11 10
356 358 360 360 360 360 358 358 359 5 6 10 9 12 12 11 14 17 17 19 15 14
359 0 3 4 4 4 2 2 3 12 11 12 11 14 12 13 14 15 15 18 17 13
1 4 6 8 6 6 7 5 9 15 15 13 13 14 15 13 16 17 14 15 14 14
4 8 10 10 9 8 9 9 12 19 22 18 14 14 18 16 14 19 17 16 17 14
7 11 13 12 12 10 10 12 14 24 24 19 15 14 17 15 16 19 17 18 18 15
11 14 15 14 14 13 12 12 16 23 24 22 18 16 17 23 16 16 18 18 20 16
15 16 18 16 13 14 15 14 16 22 23 21 19 21 22 29 24 21 21 20 21 20
20 18 17 16 15 15 14 16 18 17 22 23 21 26 25 34 23 24 25 23 23 25
25 22 18 17 19 18 15 15 17 19 18 22 20 26 27 35 19 28 27 26 24 27
31 28 24 19 20 19 18 17 21 20 19 23 21 22 27 31 25 28 27 26 25 29
35 32 28 23 22 21 22 22 23 25 27 22 25 26 26 29 25 26 28 29 30 31
38 36 29 27 27 27 26 27 28 26 28 27 27 28 30 28 29 29 25 27 31 32